Regional Weather Roundup
Issued by NWS

Home | Current Version | Previous Version | Text Only | Print | Product List | Glossary On
Versions: 1 2 3 4 5 6 7 8 9 10 11 12 13 14 15 16 17 18 19 20 21 22 23 24 25 26 27 28 29 30 31 32 33 34 35 36 37 38 39 40 41 42 43 44 45 46 47 48 49 50
231
ASUS43 KLSX 292110
RWRMO

WEATHER SUMMARY FOR MISSOURI
NATIONAL WEATHER SERVICE SPRINGFIELD MO
400 PM CDT FRI JUL 29 2016

NOTE: "FAIR" INDICATES FEW OR NO CLOUDS BELOW 12,000 FEET WITH NO
       SIGNIFICANT WEATHER AND/OR OBSTRUCTIONS TO VISIBILITY.
       CURRENT SKY AND/OR WEATHER CONDITIONS ARE NOT AVAILABLE FOR
       CHILLICOTHE AND FARMINGTON.

MOZ001>031-035>038-043-044-053-054-292200-
...NORTHERN AND WESTERN MISSOURI...

CITY           SKY/WX    TMP DP  RH WIND       PRES   REMARKS
KANSAS CTY INT PTSUNNY   84  61  45 N9        29.99F
KANSAS C DTWN  MOSUNNY   87  63  44 N9        29.96F
LEE`S SUMMIT   MOSUNNY   84  64  50 NW10      29.98F
ST JOSEPH      MOSUNNY   83  63  50 N10       29.99F
CHILLICOTHE      N/A     84  63  49 W7        29.98F
KIRKSVILLE     MOSUNNY   79  62  56 NW10      29.97S

$$
MOZ066>068-077>081-088>096-101>105-292200-
...SOUTHWEST MISSOURI...

CITY           SKY/WX    TMP DP  RH WIND       PRES   REMARKS
SPRINGFIELD    MOSUNNY   87  64  46 NW8       29.96F
JOPLIN         MOSUNNY   87  67  51 NW7       29.97F HX  90
BRANSON        CLOUDY    77  72  83 S6        30.00F

$$
MOZ032>034-039>042-045>050-055>058-069>072-292200-
...CENTRAL MISSOURI...

CITY           SKY/WX    TMP DP  RH WIND       PRES   REMARKS
COLUMBIA       MOSUNNY   84  69  60 NW8       29.95F
JEFFERSON CITY MOSUNNY   84  67  56 NW6       29.93F
ROLLA          CLOUDY    77  67  71 W3        29.95F
SEDALIA        MOSUNNY   84  70  62 VRB6      29.97F
WHITEMAN AFB   PTSUNNY   83  69  61 NW13      29.96R
OSAGE BEACH    PTSUNNY   82  73  74 E7        29.96S

$$
MOZ051-052-059>065-292200-
...EAST CENTRAL MISSOURI...

CITY           SKY/WX    TMP DP  RH WIND       PRES   REMARKS
ST LOUIS INTL  PTSUNNY   85  68  56 VRB6      29.92F
SPIRIT OF STL  PTSUNNY   86  68  54 NW6       29.91F
ST CHARLES     MOSUNNY   85  69  58 W9        29.90F

$$
MOZ072>076-082>087-097>100-106>115-292200-
...SOUTH CENTRAL AND SOUTHEAST MISSOURI...

CITY           SKY/WX    TMP DP  RH WIND       PRES   REMARKS
CAPE GIRARDEAU LGT RAIN  81  71  71 N6        29.89F
FARMINGTON     CLOUDY    84  71  65 VRB3      29.94S
POPLAR BLUFF   PTSUNNY   86  73  65 SW7       29.89F HX  93
WEST PLAINS    LGT RAIN  70  66  87 W6        30.01R

$$




USA.gov is the U.S. government's official web portal to all federal, state and local government web resources and services.